Home   Weather   Luhansk   Past weeks

Flag for Ukraine Past Weather in Luhansk, Ukraine — Yesterday and Last 2 Weeks

Now
73 °F

Sunny.


Feels Like: 77 °F
Forecast: 57 / 72 °F
Wind: 1 mph from North

Location: Rostov-Na-Donu

Current Time: May 27, 2017 at 2:58:40 pm

Latest Report: May 27, 2017 at 2:00 pm


Visibility: 10 mi

Pressure: 29.86 "Hg

Humidity: 36%

Dew Point: 45 °F

Location of LuhanskLocation

Past Weather in Luhansk — Graph

°F

Luhansk Temperature Yesterday

Maximum temperature yesterday: 72 °F (at 3:30 pm)
Minimum temperature yesterday: 48 °F (at 2:30 am)
Average temperature yesterday: 61 °F

High & Low Weather Summary for the Past Weeks

 TemperatureHumidityPressure
High75 °F (May 27, 11:30 am)94% (May 15, 4:30 am)30.15 "Hg (May 15, 4:30 am)
Low43 °F (May 18, 5:30 am)27% (May 18, 5:30 pm)29.74 "Hg (May 21, 4:00 am)
Average58 °F65%29.96 "Hg
* Reported May 12 1:00 pm — May 27 1:30 pm, Luhansk. Weather by CustomWeather, © 2017

Note: Actual official high and low records may vary slightly from our data, if they occured in-between our weather recording intervals... More about our weather records

Advertising

Luhansk Weather History for the Previous 24 Hours

Scroll right to see more
 ConditionsComfort  
Time TempWeatherWind HumidityBarometerVisibility
1:30 pm
Sat, May 27
73 °FPassing clouds.6 mph36%29.86 "HgN/A
1:00 pm75 °FScattered clouds.3 mph34%29.89 "HgN/A
12:30 pm73 °FPassing clouds.6 mph36%29.89 "HgN/A
12:00 pm75 °FPassing clouds.3 mph36%29.89 "HgN/A
11:30 am75 °FScattered clouds.3 mph34%29.89 "HgN/A
11:00 am73 °FScattered clouds.6 mph36%29.89 "HgN/A
10:30 am73 °FPassing clouds.6 mph41%29.89 "HgN/A
9:30 am70 °FPassing clouds.6 mph46%29.89 "HgN/A
9:00 am68 °FPassing clouds.6 mph53%29.89 "HgN/A
8:30 am68 °FPassing clouds.6 mph49%29.89 "HgN/A
8:00 am66 °FSunny.6 mph52%29.89 "Hg10 mi
7:30 am63 °FSunny.6 mph59%29.89 "Hg10 mi
7:00 am63 °FSunny.6 mph64%29.89 "Hg10 mi
6:30 am61 °FSunny.3 mph68%29.89 "Hg10 mi
6:00 am59 °FSunny.3 mph72%29.89 "Hg10 mi
5:30 am55 °FSunny.3 mph72%29.89 "Hg10 mi
5:00 am54 °FPassing clouds.3 mph72%29.89 "HgN/A
4:30 am54 °FPassing clouds.6 mph77%29.89 "Hg5 mi
4:00 am55 °FClear.3 mph72%29.89 "Hg5 mi
3:30 am55 °FClear.1 mph72%29.89 "Hg5 mi
3:00 am55 °FClear.3 mph72%29.89 "Hg5 mi
2:30 am55 °FClear.3 mph72%29.92 "Hg5 mi
2:00 am55 °FClear.3 mph72%29.92 "Hg5 mi
1:30 am57 °FClear.1 mph67%29.92 "Hg5 mi
1:00 am55 °FClear.1 mph72%29.92 "Hg5 mi
12:30 am57 °FClear.No wind72%29.92 "Hg5 mi
12:00 am57 °FClear.1 mph67%29.92 "Hg5 mi
11:30 pm
Fri, May 26
59 °FClear.No wind63%29.92 "Hg5 mi
11:00 pm59 °FClear.3 mph63%29.92 "Hg5 mi
10:30 pm61 °FClear.3 mph59%29.92 "Hg5 mi
9:30 pm61 °FClear.6 mph59%29.92 "Hg5 mi
9:00 pm63 °FClear.6 mph56%29.92 "Hg5 mi
8:30 pm64 °FClear.3 mph52%29.92 "Hg5 mi
8:00 pm66 °FSunny.1 mph49%29.92 "Hg10 mi
7:00 pm70 °FSunny.1 mph43%29.92 "Hg10 mi
6:00 pm70 °FPassing clouds.3 mph43%29.92 "HgN/A
5:30 pm72 °FScattered clouds.3 mph38%29.95 "HgN/A
4:30 pm72 °FScattered clouds.3 mph41%29.95 "HgN/A
4:00 pm72 °FPassing clouds.6 mph38%29.95 "HgN/A
3:30 pm72 °FScattered clouds.6 mph38%29.98 "HgN/A
3:00 pm70 °FPassing clouds.3 mph40%29.98 "HgN/A
2:30 pm68 °FPassing clouds.3 mph43%29.98 "HgN/A
2:00 pm70 °FPassing clouds.3 mph43%29.98 "HgN/A
Weather by CustomWeather, © 2017

See weather overviewHow to use our weather pages